Probability
1 1 0 0 0 0 0 0 0 0 0 0 0 0 0 0 0 0 1 1 3 6 9 10 10 11 12 11 10 10 10 10 9 8 7 5 6 8 8 8 9 9 10
1 0 0 0 0 0 0 0 0 0 0 0 0 0 0 0 0 0 0 1 3 8 11 11 12 12 13 14 12 10 9 9 8 8 7 5 6 8 8 8 8 8 9
0 0 0 0 0 0 0 0 0 0 0 0 0 0 0 0 0 0 0 0 2 7 12 13 12 12 13 14 12 10 9 8 7 6 6 6 7 8 7 6 6 6 6
0 0 0 0 0 0 0 1 0 0 0 0 0 0 0 0 0 0 0 0 1 4 10 12 12 11 11 11 10 10 10 9 8 6 6 6 7 9 8 7 5 5 6
0 0 0 0 0 0 0 1 1 1 1 1 0 0 0 0 0 0 0 0 1 3 7 11 11 11 12 11 10 10 11 10 9 8 8 9 11 12 12 9 7 7 7
0 0 0 0 1 1 1 2 2 2 2 2 1 0 0 0 0 0 0 1 2 4 6 9 11 11 11 12 11 10 10 9 9 9 10 11 14 15 15 13 11 10 9
0 0 0 1 2 2 3 3 3 2 2 2 2 1 1 1 2 2 2 3 3 5 6 9 10 10 10 10 9 9 9 8 8 9 10 11 13 16 17 16 14 12 11
0 0 0 1 2 3 3 3 3 3 3 3 4 4 3 3 4 5 6 6 6 6 7 8 9 9 8 8 8 8 8 7 7 8 8 9 11 14 16 15 14 13 12
0 0 0 1 3 3 3 4 4 4 4 6 7 8 7 6 7 8 8 8 8 7 7 7 7 7 7 7 8 8 7 5 5 5 5 7 10 12 13 13 14 14 13
1 2 3 4 4 4 4 6 7 7 8 9 11 11 10 9 10 10 9 8 8 8 7 5 5 6 6 7 7 7 5 4 4 3 3 4 6 9 10 12 13 14 15
4 5 8 9 8 7 7 7 7 9 11 14 14 12 11 10 10 10 9 8 7 7 6 5 5 6 6 7 7 5 3 3 3 2 2 3 4 5 8 10 12 14 15
7 8 10 11 11 11 9 8 7 8 11 15 15 13 11 10 10 10 9 7 5 5 6 6 6 7 7 7 6 4 2 1 1 1 1 1 2 3 5 7 9 12 13
10 9 9 11 13 12 10 10 9 9 10 12 13 13 13 11 10 9 9 6 5 5 6 6 7 7 7 6 5 3 1 0 0 0 0 0 1 1 2 3 6 10 11
12 12 11 12 14 12 12 14 15 13 11 11 12 14 15 13 11 10 9 8 7 5 5 6 7 7 8 7 5 2 2 1 0 0 0 0 0 0 1 1 3 7 8
15 15 14 13 13 13 15 18 18 16 14 13 14 17 17 15 13 12 11 11 9 7 5 5 7 7 8 8 6 4 4 3 1 0 0 0 0 0 0 0 1 2 4
17 16 14 13 14 14 16 18 17 16 15 15 17 18 18 17 15 14 13 12 11 10 7 7 8 9 8 8 7 6 7 5 2 1 0 0 0 0 0 0 0 0 1
20 17 15 15 16 16 17 17 15 15 15 16 18 18 18 17 17 15 12 11 12 14 13 11 10 10 11 11 9 8 8 6 4 3 1 0 0 0 0 0 0 0 0
22 21 20 20 19 19 19 19 17 16 16 17 18 19 18 18 17 15 12 10 13 17 17 15 12 12 13 13 11 10 10 9 7 5 3 1 0 0 0 0 0 0 0
23 22 22 22 22 21 21 20 18 17 16 17 18 18 17 16 16 15 14 13 14 16 18 18 15 13 12 13 13 12 12 12 10 6 3 1 1 0 0 0 0 0 0
20 21 22 23 23 22 21 19 17 16 15 15 16 15 14 13 13 13 14 14 14 15 17 19 18 14 12 14 15 14 14 16 15 10 6 4 3 2 1 0 0 0 0
17 20 23 24 23 20 16 14 14 13 13 13 14 14 13 11 10 10 11 11 11 13 16 19 19 17 15 17 18 18 17 18 17 15 12 9 7 4 2 1 0 0 0
18 20 23 23 21 16 11 8 8 11 13 15 17 16 14 12 11 9 7 6 6 9 12 17 20 20 18 19 20 19 17 17 17 16 15 14 11 7 4 2 1 0 0
17 19 20 20 19 14 8 5 5 9 17 20 20 19 17 14 14 14 10 8 7 8 10 14 18 18 17 20 21 19 16 15 15 15 16 16 12 7 5 4 2 0 0
16 17 17 17 17 14 9 4 4 11 19 22 22 21 20 18 18 19 18 16 15 14 11 12 14 14 13 15 18 18 17 15 14 15 15 15 12 8 6 6 3 1 0
16 16 16 17 17 14 9 4 6 13 19 21 22 22 20 18 17 17 19 20 21 19 15 12 12 10 7 7 11 16 18 15 14 14 13 13 11 9 8 7 6 3 1
16 16 16 17 17 14 9 5 7 14 18 19 21 20 16 14 12 13 17 20 21 20 16 13 11 7 4 4 7 14 18 16 14 13 12 12 12 10 9 8 7 6 4
Wind_Speed
2 1 1 0 1 1 2 1 1 1 2 2 2 2 3 3 2 2 2 6 6 6 6 6 7 7 7 7 8 9 9 10 10 11 11 11 11 11 11 11 11 11 10
1 1 1 1 1 0 0 1 1 1 2 2 3 3 4 4 3 3 3 4 8 7 7 6 7 7 7 7 8 8 8 9 9 10 11 11 11 12 12 12 11 11 11
1 1 1 1 0 0 1 1 1 2 2 2 3 3 4 4 3 3 4 3 4 8 8 7 7 7 8 8 8 8 8 8 9 9 10 10 11 12 12 12 12 12 11
2 2 1 1 1 1 1 1 2 2 2 3 3 3 3 3 4 4 4 3 3 3 6 7 7 7 8 8 8 9 9 9 9 9 10 10 11 11 12 12 12 12 11
2 2 1 0 2 2 2 3 0 2 2 3 3 3 3 3 3 4 3 4 3 4 3 5 7 7 7 8 8 8 8 8 8 9 10 11 10 11 11 11 12 12 12
2 2 2 1 3 2 2 2 2 2 3 3 4 3 3 3 3 3 4 3 3 4 4 3 4 6 8 7 7 7 8 7 8 8 9 10 10 10 11 12 13 13 13
2 2 2 1 2 2 2 3 3 2 2 2 3 3 2 3 2 3 3 2 3 3 3 3 4 3 3 8 7 7 7 8 8 8 8 9 10 10 11 11 12 13 13
2 2 2 2 2 2 2 2 2 3 2 1 3 3 2 3 3 2 2 3 2 3 3 3 3 3 4 3 3 6 6 7 7 7 7 8 8 9 10 11 10 11 12
2 2 2 3 2 3 1 2 3 3 3 2 2 3 3 2 3 2 3 2 2 3 3 3 3 3 4 4 3 5 5 5 6 7 7 7 7 8 10 10 10 10 10
2 3 3 3 3 3 2 3 1 3 4 3 2 2 3 4 4 2 2 2 3 3 4 4 3 3 4 4 2 1 3 4 6 7 7 7 7 7 9 11 11 10 10
3 3 3 3 3 3 2 3 2 4 3 4 3 3 3 3 5 5 4 3 3 3 3 4 3 3 3 4 3 2 3 4 5 6 7 7 8 8 8 10 11 11 10
2 3 3 3 3 3 3 3 3 3 3 4 4 4 4 4 4 4 5 5 4 3 3 3 4 3 3 3 3 3 2 4 5 6 6 7 8 8 8 8 9 10 10
2 2 3 3 3 3 3 3 3 4 4 4 4 4 4 4 4 5 5 6 6 4 4 4 3 3 3 2 2 3 4 5 5 5 6 6 7 7 8 8 8 9 9
2 2 3 3 3 3 3 3 3 4 3 4 5 4 5 4 4 4 5 5 6 5 4 4 2 3 2 3 0 4 3 5 5 5 6 6 6 7 7 7 8 8 8
3 3 3 3 3 4 4 4 3 4 4 5 5 4 4 3 4 4 4 4 6 7 5 3 3 2 2 2 1 4 3 3 5 5 6 6 7 7 7 7 7 7 7
3 4 4 4 4 4 4 4 4 3 4 4 4 4 4 4 3 4 4 4 5 6 6 4 3 3 3 4 2 4 4 4 7 7 7 6 6 6 6 7 7 7 8
3 4 4 4 5 5 5 4 5 4 5 5 5 4 5 5 4 4 4 4 4 5 7 6 4 3 3 5 4 4 5 5 4 7 6 6 6 7 7 7 7 7 7
4 4 4 5 5 5 5 5 6 5 5 5 5 5 5 4 4 5 4 5 4 5 6 7 5 4 5 5 4 6 5 5 5 6 7 7 7 7 7 8 8 8 7
3 3 4 4 5 5 5 5 5 6 6 5 5 5 5 4 5 4 5 5 5 5 5 6 5 4 4 4 5 6 6 5 7 4 7 8 8 8 8 8 8 8 8
3 3 3 4 4 4 5 5 5 5 5 5 5 5 5 5 5 5 5 5 6 6 5 6 5 5 4 4 5 5 5 4 5 5 4 5 7 10 10 10 9 8 8
3 3 3 3 3 3 4 4 5 6 5 6 5 5 5 4 4 5 5 5 6 6 5 5 5 5 4 4 5 5 5 5 5 4 5 5 5 6 7 9 9 7 7
3 3 3 3 3 3 2 3 5 6 5 6 6 6 6 5 5 6 7 7 8 7 7 7 6 6 6 6 5 6 6 6 5 3 5 6 5 5 5 4 4 5 6
2 2 3 3 3 2 2 3 4 6 6 5 6 5 6 4 4 5 6 8 8 9 9 9 9 8 7 5 5 7 6 7 7 5 6 7 6 6 5 2 5 6 7
2 2 3 3 3 2 2 3 5 7 6 5 5 5 6 5 4 6 7 7 7 7 7 8 8 8 7 6 6 7 7 7 8 6 5 7 6 6 5 4 6 7 7
2 3 3 3 3 2 2 3 5 6 5 5 5 5 6 6 3 5 7 8 8 7 5 6 7 7 6 6 6 6 6 6 7 5 5 6 6 6 6 5 4 8 8
3 3 2 3 3 3 1 2 5 5 5 5 4 4 4 4 4 4 7 8 8 8 7 5 6 7 8 7 8 8 6 7 7 6 3 4 6 5 5 4 4 3 5
Wind_Direction
158 141 149 155 221 147 161 195 240 254 257 248 259 247 258 268 260 252 161 169 193 212 223 225 223 225 225 225 227 227 228 228 226 225 225 224 222 219 221 224 222 220 220
138 157 170 191 219 229 20 258 221 239 256 259 258 246 252 259 250 255 252 183 190 204 216 225 229 232 231 230 231 232 231 230 231 231 229 226 225 223 223 226 225 223 222
158 212 213 213 206 205 219 255 268 252 247 248 246 245 244 252 252 250 259 258 209 196 205 220 231 235 236 237 236 234 229 230 232 231 229 229 227 225 224 226 226 224 224
199 227 238 236 251 249 241 234 250 269 275 272 264 260 251 238 245 244 245 247 258 245 200 204 226 236 241 244 245 243 237 232 233 231 231 230 228 225 225 226 226 225 225
222 230 236 261 248 247 255 275 288 292 283 283 269 251 257 246 242 246 251 247 248 258 256 182 205 225 237 246 249 250 248 241 236 234 234 232 230 229 225 227 227 227 227
220 243 216 227 256 248 257 276 286 278 281 284 287 291 270 259 246 240 245 233 230 243 253 261 224 209 213 232 244 249 249 246 242 241 240 237 235 232 228 227 227 227 226
219 240 264 221 257 262 279 284 286 267 279 306 285 277 247 226 239 237 239 248 234 240 250 256 261 271 213 201 219 242 250 250 250 248 246 244 239 235 231 228 229 228 225
233 225 236 254 252 256 256 284 293 302 306 288 298 298 283 206 215 214 223 226 251 257 251 249 257 259 273 251 181 209 234 249 254 255 251 246 243 239 238 235 233 231 226
232 260 249 266 269 266 264 273 279 280 290 283 288 299 305 325 313 200 228 232 247 269 267 260 245 251 257 261 242 188 210 239 251 255 255 255 252 246 240 238 238 235 231
243 245 247 254 268 277 277 269 294 287 278 279 252 261 291 314 296 296 234 212 229 251 273 281 281 257 254 253 227 210 196 233 247 254 257 257 254 252 244 239 239 239 236
237 249 243 248 256 266 279 292 287 282 275 282 287 283 277 260 261 282 291 295 271 262 260 264 273 273 264 257 246 184 184 232 247 251 255 256 254 254 253 245 239 238 236
223 234 239 245 253 267 267 265 270 265 279 287 287 286 281 280 278 277 283 284 288 286 275 271 263 262 258 257 247 125 202 241 250 254 257 257 256 255 255 253 244 239 238
230 221 245 245 252 252 259 266 260 273 270 269 269 276 279 278 286 283 284 290 291 281 265 253 248 254 263 266 226 153 218 231 240 247 254 257 258 256 255 254 248 244 241
263 251 244 250 256 257 261 260 265 263 261 262 269 277 278 278 282 276 280 290 290 283 264 265 259 247 270 271 27 240 233 203 220 236 246 251 256 256 255 254 247 246 245
256 249 252 252 255 257 257 256 264 268 267 266 270 261 267 276 270 275 274 275 283 290 289 272 269 265 269 275 278 270 267 191 217 233 244 249 253 253 253 250 243 244 243
264 259 256 257 256 254 253 256 259 259 268 268 271 281 279 278 277 268 267 269 270 280 289 295 284 292 308 289 255 283 272 210 220 227 236 245 249 249 248 249 240 241 241
252 253 255 257 255 252 251 251 259 258 262 271 273 268 269 283 283 279 269 266 265 267 274 282 287 290 285 285 289 282 268 260 230 203 220 235 242 245 247 247 243 241 243
249 251 256 256 257 255 253 253 257 259 260 264 271 273 273 271 272 276 280 272 269 268 271 282 283 281 276 272 278 278 276 273 272 194 210 227 237 241 244 246 243 240 241
251 255 260 261 264 266 261 257 260 264 265 266 268 270 275 282 280 283 281 280 275 265 264 270 273 281 278 280 277 272 276 278 276 211 206 216 223 232 239 241 240 238 238
259 261 260 264 265 268 267 262 259 260 262 264 264 267 272 275 277 280 275 277 280 278 268 267 271 270 270 275 274 276 279 269 278 277 259 243 221 222 229 231 233 236 238
270 275 270 264 263 262 274 281 274 260 258 261 262 263 263 268 290 285 290 288 283 276 272 268 268 269 271 280 276 280 282 283 272 274 278 261 239 237 222 218 223 233 236
272 272 275 280 281 290 353 332 299 284 271 264 266 267 264 245 247 245 258 270 276 277 283 280 273 274 275 275 281 285 291 288 283 275 282 276 267 262 253 244 200 208 223
267 267 279 282 288 319 335 315 302 287 275 271 270 271 273 274 265 275 258 246 249 246 254 272 279 280 280 279 285 282 282 284 284 288 280 277 270 267 262 232 179 204 219
273 274 277 281 281 299 319 301 299 272 275 274 273 273 276 283 285 290 284 277 274 264 248 251 268 275 280 285 273 273 279 274 270 264 267 276 277 276 278 261 187 204 219
270 264 267 272 276 283 309 303 292 278 272 271 271 272 275 280 295 294 279 277 278 277 255 248 255 258 267 271 272 273 271 273 275 266 251 269 276 281 277 265 215 196 211
265 267 268 278 282 290 299 294 288 282 287 284 272 261 241 265 280 271 273 278 279 283 285 265 248 245 249 244 234 251 266 270 278 275 260 269 276 282 278 265 264 239 233